Location: Houston
(29.7630°N, 95.3630°W)
Time: 05:40:49
(UTC-05:00)

ISS - All Passes

Search period start: 24 July 2014 00:00
Search period end: 03 August 2014 00:00
Orbit: 411 x 419 km, 51.6° (Epoch: 24 July)

Date Brightness Start Highest point End Pass type
(mag) Time Alt. Az. Time Alt. Az. Time Alt. Az.
24 Jul - 00:17:42 10° SSE 00:19:25 13° SE 00:21:07 10° E night (unlit)
24 Jul - 01:52:45 10° WSW 01:55:51 35° NW 01:58:58 10° NNE night (unlit)
24 Jul - 08:26:58 10° N 08:28:56 15° NE 08:30:53 10° ENE daylight
24 Jul - 10:02:36 10° WNW 10:05:47 42° SW 10:08:58 10° SSE daylight
25 Jul - 01:03:44 10° SW 01:07:03 74° NW 01:10:24 10° NE night (unlit)
25 Jul - 09:13:44 10° NW 09:17:06 87° NE 09:20:26 10° SE daylight
26 Jul - 00:15:09 10° SSW 00:18:22 49° SE 00:21:37 10° NE night (unlit)
26 Jul - 01:53:37 10° WNW 01:55:17 13° NW 01:56:58 10° N night (unlit)
26 Jul - 08:25:10 10° NNW 08:28:22 41° NE 08:31:32 10° ESE daylight
26 Jul - 10:03:29 10° WSW 10:04:45 12° SW 10:06:01 10° SSW daylight
26 Jul - 23:27:04 10° S 23:29:46 23° SE 23:32:30 10° ENE night (unlit)
27 Jul - 01:03:45 10° W 01:06:25 22° NW 01:09:06 10° NNE night (unlit)
27 Jul - 07:36:53 10° NNW 07:39:35 22° NE 07:42:17 10° E daylight
27 Jul - 09:13:30 10° WNW 09:16:14 23° SW 09:18:57 10° S daylight
27 Jul - 22:40:00 10° SSE 22:41:16 12° SE 22:42:33 10° ESE night (unlit)
28 Jul - 00:14:31 10° WSW 00:17:40 40° NW 00:20:51 10° NNE night (unlit)
28 Jul - 06:49:02 10° N 06:50:46 13° NE 06:52:30 10° ENE daylight
28 Jul - 08:24:26 10° NW 08:27:41 49° SW 08:30:55 10° SSE daylight
28 Jul - 23:25:42 10° SW 23:29:01 85° NW 23:32:22 10° NE night (unlit)
29 Jul - 07:35:45 10° NW 07:39:07 76° NE 07:42:27 10° SE daylight
29 Jul - 22:37:19 10° SSW 22:40:29 43° SE 22:43:40 10° ENE night (unlit)
30 Jul - 00:15:28 10° WNW 00:17:22 14° NW 00:19:16 10° N night (unlit)
30 Jul - 06:47:21 10° NNW 06:50:30 36° NE 06:53:38 10° ESE daylight
30 Jul - 08:25:15 10° W 08:26:57 13° SW 08:28:38 10° SSW daylight
30 Jul - 21:49:28 10° S 21:52:02 21° SE 21:54:37 10° ENE night (unlit)
30 Jul - 23:25:53 10° W 23:28:39 24° NW 23:31:26 10° NNE night (unlit)
31 Jul - 05:59:15 10° NNW 06:01:51 20° NE 06:04:26 10° E visible
31 Jul - 07:35:41 10° WNW 07:38:33 26° SW 07:41:24 10° S daylight
31 Jul - 21:03:03 10° SE 21:03:40 10° SE 21:04:18 10° ESE visible
31 Jul - 22:36:51 10° WSW 22:40:02 44° NW 22:43:16 10° NNE night (unlit)
01 Aug - 05:11:39 10° N 05:13:09 12° NE 05:14:39 10° ENE visible
01 Aug - 06:46:49 10° NW 06:50:07 55° SW 06:53:24 10° SSE daylight
01 Aug - 21:48:14 10° SW 21:51:32 85° SE 21:54:53 10° NE visible
02 Aug - 05:58:19 10° NW 06:01:40 67° NE 06:05:00 10° SE visible
02 Aug - 21:00:03 10° SSW 21:03:08 38° SE 21:06:16 10° ENE visible
02 Aug - 22:37:55 10° WNW 22:39:59 15° NW 22:42:04 10° N visible
